Regional Weather Roundup
Issued by NWS Goodland, KS

Home | Current Version | Previous Version | Graphics & Text | Print | Product List | Glossary On
Versions: 1 2 3 4 5 6 7 8 9 10 11 12 13 14 15 16 17 18 19 20 21 22 23 24 25 26 27 28 29 30 31 32 33 34 35 36 37 38 39 40 41 42 43 44 45 46 47 48 49 50
000
ASUS43 KGLD 060408
RWRGLD

GOODLAND FORECAST AREA HOURLY WEATHER ROUNDUP
NATIONAL WEATHER SERVICE GOODLAND KS
1000 PM MDT TUE MAY 05 2015

...OFFICIAL OBSERVATIONS...

CITY           SKY/WX    TMP DP  RH WIND       PRES   REMARKS
GOODLAND KS    MOCLDY    57  55  93 S18       29.77F
HILL CITY KS   CLOUDY    61  58  90 S15G23    29.86R
IMPERIAL NEB   CLOUDY    55  53  93 E18       29.80F
MCCOOK NEB     RAIN      59  57  93 SE17G29   29.81F FOG
AKRON CO       CLOUDY    53  53 100 SE20G29   29.74S
BURLINGTON CO  MOCLDY    54  51  90 S15       29.77S
LIMON CO       CLOUDY    49  47  93 W12       29.77R
$$

...UNOFFICIAL OBSERVATIONS...

CITY           SKY/WX    TMP DP  RH WIND       PRES   REMARKS
COLBY KS       MOCLDY    57  57 100 SE16      29.81S
GOVE KS          N/A     61  32  33 MISG        N/A
LENORA KS        N/A     59  32  36 MISG        N/A
NORTON KS      CLOUDY    57  55  94 SE15G25   29.84S
SHARON SPRINGS   N/A     53  51  95 MISG        N/A
KIT CARSON CO    N/A     53  51  92 MISG        N/A
YUMA CO          N/A     57  57 100 E15         N/A
$$


USA.gov is the U.S. government's official web portal to all federal, state and local government web resources and services.